Weather in Stepantsi

Ukraine / Cherkassi District     49°42′29″N   31°17′59″E
В апреле 2022 года жителям России запретили посещать сайт meteo.paraplan.net по решению Генеральной прокуратуры. Аудитория сайта уменьшилась в 10 раз. Владельцы сайта не видят смысла в поддержке погодного сервера в таких условиях. Сайт будет закрыт в октябре.
temp.,
°C
wind,
m/s
gust,
m/s
humid.,
%
clouds,
%
prec.,
mm/h
press.,
hPa
HPBL,
m
25 september, sun
sun2500:00+7w5127999 0.0 1015337
03:00+7w512855 0.0 1016285
06:00+6w512875 0.0 1016285
09:00+9w611696 0.0 1017428
12:00+14w69496 0.0 10171557
15:00+15w5852100 0.0 10161914
18:00+13w226290 0.0 101535
21:00+11w3473100 0.0 101671
26 september, mon
mon2600:00+9wsw2276100 0.0 101520
03:00+9ssw227692 0.0 101523
06:00+10ssw2266100 0.0 101451
09:00+11s2570100 0.0 1014123
12:00+16se3454100 0.0 1013527
15:00+19sse4652100 0.0 10111144
18:00+15ene3576100 0.4 100980
21:00+14nne3481100 0.4 100996
27 september, tue
tue2700:00+12nne3488100 0.0 1009103
03:00+12e2290100 0.0 100839
06:00+13ene1189100 0.1 100616
09:00+13se2494100 0.9 1006138
12:00+14ese51194100 2.1 1004441
15:00+15se51287100 2.2 1003627
18:00+14ese51192100 0.1 1001389
21:00+14ese4896100 1.3 999242
28 september, wed
wed2800:00+13s239690 1.8 99850
03:00+12w499733 2.2 999226
06:00+12w5992100 0.0 1000541
09:00+13w5979100 0.0 1001720
12:00+16w676922 0.0 1002972
15:00+18w6757100 0.0 10031681
18:00+16wsw33685 0.0 100449
21:00+12wnw35850 0.0 100787
29 september, thu
thu2900:00+11nnw22902 0.0 100827
03:00+10ene11878 0.0 101010
06:00+9ese228931 0.0 101020
09:00+13ese4778100 0.0 1011231
12:00+17se6964100 0.0 1011596
15:00+20sse6955100 0.0 10101048
18:00+18ese4971100 0.0 1010166
21:00+16se51369100 0.1 1011291